Location: Aytr�
(46.1357°N, 1.1145°W)
Time: 15:30:37
(UTC+00:00)

Ariane Rocket - Pass Details

Date: 03 March 2021
Orbit: 759 x 771 km, 98.7° (Epoch: 14 April)

Event Time Altitude Azimuth Distance (km) Brightness Sun altitude
Exits shadow 18:42:04 11° 103° (ESE) 2,264 4.8 -9.2°
Maximum altitude 18:45:28 20° 59° (ENE) 1,745 4.4 -9.7°
Drops below altitude 10° 18:49:03 10° 15° (NNE) 2,323 5.4 -10.4°
Sets 18:51:55 0° 359° (N) 3,253 6.3 -10.9°
